Zurück zum Katalog

STARLINK-3243

AktivKommunikationVLEO
NORAD 51116·PAYLOAD·🇺🇸 United States

Gestartet Jan 19, 2022 von Cape Canaveral Space Force Station

Loading…

Nächste Überflüge (nächste 24 Stunden)

TLE

AktuellSource: CelesTrak SupGP

Epoche: Sep 14, 2026, 20:46 UTC

1 51116C 22005N   26257.86576389 -.00031019  00000+0 -99772-3 0  2576
2 51116  53.1565 150.0240 0001248  88.2327 271.1941 15.31710195    17

Verfolge STARLINK-3243 in Echtzeit mit AllMySat

Download on the App Store